Year,Month,Day,Hour,Minute,Value (Times are PST for temperature in C)
2007,05,03,00,00,8.00
2007,05,03,00,01,8.00
2007,05,03,00,02,8.00
2007,05,03,00,03,8.00
2007,05,03,00,04,8.00
2007,05,03,00,05,8.00
2007,05,03,00,06,8.00
2007,05,03,00,07,8.00
2007,05,03,00,08,8.00
2007,05,03,00,09,8.00
2007,05,03,00,10,8.00
2007,05,03,00,11,8.00
2007,05,03,00,12,8.10
2007,05,03,00,13,8.10
2007,05,03,00,14,8.10
2007,05,03,00,15,8.10
2007,05,03,00,16,8.10
2007,05,03,00,17,8.00
2007,05,03,00,18,8.00
2007,05,03,00,19,8.00
2007,05,03,00,20,8.00
2007,05,03,00,21,8.00
2007,05,03,00,22,8.00
2007,05,03,00,23,8.00
2007,05,03,00,24,8.00
2007,05,03,00,25,8.00
2007,05,03,00,26,8.00
2007,05,03,00,27,8.00
2007,05,03,00,28,8.00
2007,05,03,00,29,8.00
2007,05,03,00,30,8.00
2007,05,03,00,31,8.00
2007,05,03,00,32,8.00
2007,05,03,00,33,8.00
2007,05,03,00,34,8.00
2007,05,03,00,35,8.00
2007,05,03,00,36,8.00
2007,05,03,00,37,7.90
2007,05,03,00,38,7.90
2007,05,03,00,39,7.90
2007,05,03,00,40,7.90
2007,05,03,00,41,7.90
2007,05,03,00,42,7.80
2007,05,03,00,43,7.80
2007,05,03,00,44,7.80
2007,05,03,00,45,7.80
2007,05,03,00,46,7.80
2007,05,03,00,47,7.80
2007,05,03,00,48,7.80
2007,05,03,00,49,7.70
2007,05,03,00,50,7.70
2007,05,03,00,51,7.60
2007,05,03,00,52,7.60
2007,05,03,00,53,7.60
2007,05,03,00,54,7.50
2007,05,03,00,55,7.50
2007,05,03,00,56,7.50
2007,05,03,00,57,7.50
2007,05,03,00,58,7.50
2007,05,03,00,59,7.40
2007,05,03,01,00,7.40
2007,05,03,01,01,7.40
2007,05,03,01,02,7.40
2007,05,03,01,03,7.40
2007,05,03,01,04,7.30
2007,05,03,01,05,7.30
2007,05,03,01,06,7.30
2007,05,03,01,07,7.30
2007,05,03,01,08,7.30
2007,05,03,01,09,7.30
2007,05,03,01,10,7.30
2007,05,03,01,11,7.30
2007,05,03,01,12,7.30
2007,05,03,01,13,7.20
2007,05,03,01,14,7.20
2007,05,03,01,15,7.20
2007,05,03,01,16,7.20
2007,05,03,01,17,7.20
2007,05,03,01,18,7.10
2007,05,03,01,19,7.10
2007,05,03,01,20,7.10
2007,05,03,01,21,7.00
2007,05,03,01,22,7.00
2007,05,03,01,23,7.00
2007,05,03,01,24,7.00
2007,05,03,01,25,7.00
2007,05,03,01,26,6.90
2007,05,03,01,27,6.90
2007,05,03,01,28,6.90
2007,05,03,01,29,6.90
2007,05,03,01,30,6.90
2007,05,03,01,31,6.90
2007,05,03,01,32,6.90
2007,05,03,01,33,6.90
2007,05,03,01,34,6.90
2007,05,03,01,35,6.90
2007,05,03,01,36,6.90
2007,05,03,01,37,6.90
2007,05,03,01,38,6.90
2007,05,03,01,39,6.90
2007,05,03,01,40,6.80
2007,05,03,01,41,6.80
2007,05,03,01,42,6.80
2007,05,03,01,43,6.80
2007,05,03,01,44,6.80
2007,05,03,01,45,6.80
2007,05,03,01,46,6.80
2007,05,03,01,47,6.80
2007,05,03,01,48,6.80
2007,05,03,01,49,6.90
2007,05,03,01,50,6.90
2007,05,03,01,51,6.80
2007,05,03,01,52,6.80
2007,05,03,01,53,6.80
2007,05,03,01,54,6.80
2007,05,03,01,55,6.80
2007,05,03,01,56,6.80
2007,05,03,01,57,6.80
2007,05,03,01,58,6.80
2007,05,03,01,59,6.80
2007,05,03,02,00,6.80
2007,05,03,02,01,6.80
2007,05,03,02,02,6.70
2007,05,03,02,03,6.70
2007,05,03,02,04,6.70
2007,05,03,02,05,6.70
2007,05,03,02,06,6.60
2007,05,03,02,07,6.60
2007,05,03,02,08,6.60
2007,05,03,02,09,6.60
2007,05,03,02,10,6.60
2007,05,03,02,11,6.50
2007,05,03,02,12,6.40
2007,05,03,02,13,6.40
2007,05,03,02,14,6.40
2007,05,03,02,15,6.40
2007,05,03,02,16,6.40
2007,05,03,02,17,6.40
2007,05,03,02,18,6.40
2007,05,03,02,19,6.40
2007,05,03,02,20,6.40
2007,05,03,02,21,6.40
2007,05,03,02,22,6.50
2007,05,03,02,23,6.60
2007,05,03,02,24,6.60
2007,05,03,02,25,6.60
2007,05,03,02,26,6.60
2007,05,03,02,27,6.60
2007,05,03,02,28,6.60
2007,05,03,02,29,6.60
2007,05,03,02,30,6.60
2007,05,03,02,31,6.60
2007,05,03,02,32,6.70
2007,05,03,02,33,6.70
2007,05,03,02,34,6.70
2007,05,03,02,35,6.80
2007,05,03,02,36,6.80
2007,05,03,02,37,6.80
2007,05,03,02,38,6.80
2007,05,03,02,39,6.80
2007,05,03,02,40,6.80
2007,05,03,02,41,6.80
2007,05,03,02,42,6.80
2007,05,03,02,43,6.80
2007,05,03,02,44,6.90
2007,05,03,02,45,6.90
2007,05,03,02,46,6.90
2007,05,03,02,47,6.90
2007,05,03,02,48,7.00
2007,05,03,02,49,7.00
2007,05,03,02,50,7.00
2007,05,03,02,51,7.00
2007,05,03,02,52,7.00
2007,05,03,02,53,7.00
2007,05,03,02,54,7.00
2007,05,03,02,55,7.00
2007,05,03,02,56,7.00
2007,05,03,02,57,7.10
2007,05,03,02,58,7.10
2007,05,03,02,59,7.10
2007,05,03,03,00,7.10
2007,05,03,03,01,7.10
2007,05,03,03,02,7.10
2007,05,03,03,03,7.10
2007,05,03,03,04,7.10
2007,05,03,03,05,7.10
2007,05,03,03,06,7.10
2007,05,03,03,07,7.10
2007,05,03,03,08,7.10
2007,05,03,03,09,7.10
2007,05,03,03,10,7.10
2007,05,03,03,11,7.10
2007,05,03,03,12,7.10
2007,05,03,03,13,7.20
2007,05,03,03,14,7.20
2007,05,03,03,15,7.20
2007,05,03,03,16,7.20
2007,05,03,03,17,7.20
2007,05,03,03,18,7.20
2007,05,03,03,19,7.20
2007,05,03,03,20,7.20
2007,05,03,03,21,7.20
2007,05,03,03,22,7.20
2007,05,03,03,23,7.20
2007,05,03,03,24,7.20
2007,05,03,03,25,7.20
2007,05,03,03,26,7.20
2007,05,03,03,27,7.30
2007,05,03,03,28,7.30
2007,05,03,03,29,7.30
2007,05,03,03,30,7.30
2007,05,03,03,31,7.30
2007,05,03,03,32,7.30
2007,05,03,03,33,7.30
2007,05,03,03,34,7.30
2007,05,03,03,35,7.30
2007,05,03,03,36,7.30
2007,05,03,03,37,7.30
2007,05,03,03,38,7.30
2007,05,03,03,39,7.30
2007,05,03,03,40,7.30
2007,05,03,03,41,7.30
2007,05,03,03,42,7.30
2007,05,03,03,43,7.30
2007,05,03,03,44,7.30
2007,05,03,03,45,7.30
2007,05,03,03,46,7.30
2007,05,03,03,47,7.30
2007,05,03,03,48,7.30
2007,05,03,03,49,7.30
2007,05,03,03,50,7.30
2007,05,03,03,51,7.30
2007,05,03,03,52,7.30
2007,05,03,03,53,7.30
2007,05,03,03,54,7.30
2007,05,03,03,55,7.30
2007,05,03,03,56,7.30
2007,05,03,03,57,7.30
2007,05,03,03,58,7.30
2007,05,03,03,59,7.30
2007,05,03,04,00,7.20
2007,05,03,04,01,7.20
2007,05,03,04,02,7.20
2007,05,03,04,03,7.20
2007,05,03,04,04,7.10
2007,05,03,04,05,7.10
2007,05,03,04,06,7.10
2007,05,03,04,07,7.00
2007,05,03,04,08,7.00
2007,05,03,04,09,7.00
2007,05,03,04,10,6.90
2007,05,03,04,11,6.90
2007,05,03,04,12,6.90
2007,05,03,04,13,6.80
2007,05,03,04,14,6.80
2007,05,03,04,15,6.80
2007,05,03,04,16,6.80
2007,05,03,04,17,6.80
2007,05,03,04,18,6.80
2007,05,03,04,19,6.80
2007,05,03,04,20,6.80
2007,05,03,04,21,6.70
2007,05,03,04,22,6.70
2007,05,03,04,23,6.70
2007,05,03,04,24,6.70
2007,05,03,04,25,6.60
2007,05,03,04,26,6.60
2007,05,03,04,27,6.60
2007,05,03,04,28,6.60
2007,05,03,04,29,6.60
2007,05,03,04,30,6.60
2007,05,03,04,31,6.60
2007,05,03,04,32,6.60
2007,05,03,04,33,6.40
2007,05,03,04,34,6.40
2007,05,03,04,35,6.40
2007,05,03,04,36,6.40
2007,05,03,04,37,6.40
2007,05,03,04,38,6.40
2007,05,03,04,39,6.40
2007,05,03,04,40,6.40
2007,05,03,04,41,6.40
2007,05,03,04,42,6.40
2007,05,03,04,43,6.40
2007,05,03,04,44,6.40
2007,05,03,04,45,6.40
2007,05,03,04,46,6.40
2007,05,03,04,47,6.40
2007,05,03,04,48,6.40
2007,05,03,04,49,6.40
2007,05,03,04,50,6.40
2007,05,03,04,51,6.40
2007,05,03,04,52,6.30
2007,05,03,04,53,6.30
2007,05,03,04,54,6.30
2007,05,03,04,55,6.30
2007,05,03,04,56,6.30
2007,05,03,04,57,6.30
2007,05,03,04,58,6.30
2007,05,03,04,59,6.30
2007,05,03,05,00,6.30
2007,05,03,05,01,6.30
2007,05,03,05,02,6.30
2007,05,03,05,03,6.30
2007,05,03,05,04,6.30
2007,05,03,05,05,6.30
2007,05,03,05,06,6.30
2007,05,03,05,07,6.30
2007,05,03,05,08,6.30
2007,05,03,05,09,6.30
2007,05,03,05,10,6.30
2007,05,03,05,11,6.30
2007,05,03,05,12,6.30
2007,05,03,05,13,6.30
2007,05,03,05,14,6.30
2007,05,03,05,15,6.30
2007,05,03,05,16,6.30
2007,05,03,05,17,6.30
2007,05,03,05,18,6.30
2007,05,03,05,19,6.20
2007,05,03,05,20,6.20
2007,05,03,05,21,6.20
2007,05,03,05,22,6.20
2007,05,03,05,23,6.20
2007,05,03,05,24,6.20
2007,05,03,05,25,6.20
2007,05,03,05,26,6.20
2007,05,03,05,27,6.20
2007,05,03,05,28,6.20
2007,05,03,05,29,6.20
2007,05,03,05,30,6.20
2007,05,03,05,31,6.20
2007,05,03,05,32,6.20
2007,05,03,05,33,6.20
2007,05,03,05,34,6.20
2007,05,03,05,35,6.20
2007,05,03,05,36,6.20
2007,05,03,05,37,6.20
2007,05,03,05,38,6.20
2007,05,03,05,39,6.20
2007,05,03,05,40,6.20
2007,05,03,05,41,6.20
2007,05,03,05,42,6.20
2007,05,03,05,43,6.20
2007,05,03,05,44,6.20
2007,05,03,05,45,6.20
2007,05,03,05,46,6.20
2007,05,03,05,47,6.20
2007,05,03,05,48,6.20
2007,05,03,05,49,6.20
2007,05,03,05,50,6.20
2007,05,03,05,51,6.20
2007,05,03,05,52,6.20
2007,05,03,05,53,6.20
2007,05,03,05,54,6.20
2007,05,03,05,55,6.20
2007,05,03,05,56,6.20
2007,05,03,05,57,6.20
2007,05,03,05,58,6.20
2007,05,03,05,59,6.20
2007,05,03,06,00,6.20
2007,05,03,06,01,6.20
2007,05,03,06,02,6.20
2007,05,03,06,03,6.20
2007,05,03,06,04,6.20
2007,05,03,06,05,6.20
2007,05,03,06,06,6.20
2007,05,03,06,07,6.20
2007,05,03,06,08,6.20
2007,05,03,06,09,6.20
2007,05,03,06,10,6.20
2007,05,03,06,11,6.20
2007,05,03,06,12,6.20
2007,05,03,06,13,6.20
2007,05,03,06,14,6.20
2007,05,03,06,15,6.20
2007,05,03,06,16,6.20
2007,05,03,06,17,6.20
2007,05,03,06,18,6.20
2007,05,03,06,19,6.20
2007,05,03,06,20,6.20
2007,05,03,06,21,6.20
2007,05,03,06,22,6.20
2007,05,03,06,23,6.30
2007,05,03,06,24,6.30
2007,05,03,06,25,6.30
2007,05,03,06,26,6.30
2007,05,03,06,27,6.30
2007,05,03,06,28,6.30
2007,05,03,06,29,6.30
2007,05,03,06,30,6.30
2007,05,03,06,31,6.40
2007,05,03,06,32,6.40
2007,05,03,06,33,6.40
2007,05,03,06,34,6.40
2007,05,03,06,35,6.40
2007,05,03,06,36,6.40
2007,05,03,06,37,6.40
2007,05,03,06,38,6.40
2007,05,03,06,39,6.40
2007,05,03,06,40,6.50
2007,05,03,06,41,6.60
2007,05,03,06,42,6.60
2007,05,03,06,43,6.60
2007,05,03,06,44,6.60
2007,05,03,06,45,6.70
2007,05,03,06,46,6.70
2007,05,03,06,47,6.70
2007,05,03,06,48,6.80
2007,05,03,06,49,6.80
2007,05,03,06,50,6.80
2007,05,03,06,51,6.80
2007,05,03,06,52,6.80
2007,05,03,06,53,6.80
2007,05,03,06,54,6.90
2007,05,03,06,55,6.90
2007,05,03,06,56,6.90
2007,05,03,06,57,7.00
2007,05,03,06,58,7.00
2007,05,03,06,59,7.00
2007,05,03,07,00,7.00
2007,05,03,07,01,7.00
2007,05,03,07,02,7.10
2007,05,03,07,03,7.10
2007,05,03,07,04,7.10
2007,05,03,07,05,7.10
2007,05,03,07,06,7.20
2007,05,03,07,07,7.20
2007,05,03,07,08,7.20
2007,05,03,07,09,7.30
2007,05,03,07,10,7.30
2007,05,03,07,11,7.30
2007,05,03,07,12,7.30
2007,05,03,07,13,7.30
2007,05,03,07,14,7.30
2007,05,03,07,15,7.40
2007,05,03,07,16,7.40
2007,05,03,07,17,7.40
2007,05,03,07,18,7.40
2007,05,03,07,19,7.40
2007,05,03,07,20,7.50
2007,05,03,07,21,7.50
2007,05,03,07,22,7.50
2007,05,03,07,23,7.50
2007,05,03,07,24,7.50
2007,05,03,07,25,7.50
2007,05,03,07,26,7.60
2007,05,03,07,27,7.60
2007,05,03,07,28,7.60
2007,05,03,07,29,7.60
2007,05,03,07,30,7.60
2007,05,03,07,31,7.70
2007,05,03,07,32,7.70
2007,05,03,07,33,7.70
2007,05,03,07,34,7.80
2007,05,03,07,35,7.80
2007,05,03,07,36,7.80
2007,05,03,07,37,7.80
2007,05,03,07,38,7.80
2007,05,03,07,39,7.80
2007,05,03,07,40,7.90
2007,05,03,07,41,7.90
2007,05,03,07,42,7.90
2007,05,03,07,43,7.90
2007,05,03,07,44,7.90
2007,05,03,07,45,7.90
2007,05,03,07,46,7.90
2007,05,03,07,47,8.00
2007,05,03,07,48,8.00
2007,05,03,07,49,8.00
2007,05,03,07,50,8.10
2007,05,03,07,51,8.10
2007,05,03,07,52,8.10
2007,05,03,07,53,8.20
2007,05,03,07,54,8.20
2007,05,03,07,55,8.30
2007,05,03,07,56,8.50
2007,05,03,07,57,8.60
2007,05,03,07,58,8.70
2007,05,03,07,59,8.70
2007,05,03,08,00,8.70
2007,05,03,08,01,8.80
2007,05,03,08,02,8.80
2007,05,03,08,03,8.80
2007,05,03,08,04,8.90
2007,05,03,08,05,9.00
2007,05,03,08,06,9.10
2007,05,03,08,07,9.20
2007,05,03,08,08,9.30
2007,05,03,08,09,9.30
2007,05,03,08,10,9.30
2007,05,03,08,11,9.30
2007,05,03,08,12,9.20
2007,05,03,08,13,9.10
2007,05,03,08,14,8.90
2007,05,03,08,15,8.90
2007,05,03,08,16,8.80
2007,05,03,08,17,8.70
2007,05,03,08,18,8.70
2007,05,03,08,19,8.80
2007,05,03,08,20,8.80
2007,05,03,08,21,8.90
2007,05,03,08,22,8.90
2007,05,03,08,23,9.00
2007,05,03,08,24,9.00
2007,05,03,08,25,9.00
2007,05,03,08,26,9.10
2007,05,03,08,27,9.20
2007,05,03,08,28,9.20
2007,05,03,08,29,9.30
2007,05,03,08,30,9.30
2007,05,03,08,31,9.30
2007,05,03,08,32,9.20
2007,05,03,08,33,9.20
2007,05,03,08,34,9.20
2007,05,03,08,35,9.10
2007,05,03,08,36,9.00
2007,05,03,08,37,9.00
2007,05,03,08,38,9.00
2007,05,03,08,39,9.10
2007,05,03,08,40,9.20
2007,05,03,08,41,9.20
2007,05,03,08,42,9.30
2007,05,03,08,43,9.30
2007,05,03,08,44,9.40
2007,05,03,08,45,9.40
2007,05,03,08,46,9.40
2007,05,03,08,47,9.30
2007,05,03,08,48,9.30
2007,05,03,08,49,9.20
2007,05,03,08,50,9.20
2007,05,03,08,51,9.20
2007,05,03,08,52,9.20
2007,05,03,08,53,9.20
2007,05,03,08,54,9.20
2007,05,03,08,55,9.10
2007,05,03,08,56,9.10
2007,05,03,08,57,9.10
2007,05,03,08,58,9.10
2007,05,03,08,59,9.10
2007,05,03,09,00,9.00
2007,05,03,09,01,9.00
2007,05,03,09,02,9.00
2007,05,03,09,03,9.00
2007,05,03,09,04,9.00
2007,05,03,09,05,9.10
2007,05,03,09,06,9.20
2007,05,03,09,07,9.20
2007,05,03,09,08,9.30
2007,05,03,09,09,9.30
2007,05,03,09,10,9.30
2007,05,03,09,11,9.30
2007,05,03,09,12,9.30
2007,05,03,09,13,9.30
2007,05,03,09,14,9.40
2007,05,03,09,15,9.50
2007,05,03,09,16,9.60
2007,05,03,09,17,9.60
2007,05,03,09,18,9.60
2007,05,03,09,19,9.60
2007,05,03,09,20,9.60
2007,05,03,09,21,9.50
2007,05,03,09,22,9.40
2007,05,03,09,23,9.20
2007,05,03,09,24,9.10
2007,05,03,09,25,9.00
2007,05,03,09,26,8.90
2007,05,03,09,27,8.90
2007,05,03,09,28,8.70
2007,05,03,09,29,8.80
2007,05,03,09,30,8.80
2007,05,03,09,31,8.80
2007,05,03,09,32,8.80
2007,05,03,09,33,8.80
2007,05,03,09,34,8.90
2007,05,03,09,35,8.90
2007,05,03,09,36,9.00
2007,05,03,09,37,9.00
2007,05,03,09,38,9.10
2007,05,03,09,39,9.10
2007,05,03,09,40,9.10
2007,05,03,09,41,9.20
2007,05,03,09,42,9.30
2007,05,03,09,43,9.30
2007,05,03,09,44,9.40
2007,05,03,09,45,9.50
2007,05,03,09,46,9.60
2007,05,03,09,47,9.50
2007,05,03,09,48,9.40
2007,05,03,09,49,9.30
2007,05,03,09,50,9.20
2007,05,03,09,51,9.20
2007,05,03,09,52,9.20
2007,05,03,09,53,9.20
2007,05,03,09,54,9.20
2007,05,03,09,55,9.20
2007,05,03,09,56,9.20
2007,05,03,09,57,9.10
2007,05,03,09,58,9.00
2007,05,03,09,59,9.00
2007,05,03,10,00,9.00
2007,05,03,10,01,9.00
2007,05,03,10,02,9.00
2007,05,03,10,03,9.00
2007,05,03,10,04,9.00
2007,05,03,10,05,9.00
2007,05,03,10,06,9.00
2007,05,03,10,07,9.00
2007,05,03,10,08,9.00
2007,05,03,10,09,9.10
2007,05,03,10,10,9.20
2007,05,03,10,11,9.30
2007,05,03,10,12,9.40
2007,05,03,10,13,9.40
2007,05,03,10,14,9.50
2007,05,03,10,15,9.60
2007,05,03,10,16,9.60
2007,05,03,10,17,9.70
2007,05,03,10,18,9.70
2007,05,03,10,19,9.70
2007,05,03,10,20,9.70
2007,05,03,10,21,9.80
2007,05,03,10,22,9.90
2007,05,03,10,23,10.00
2007,05,03,10,24,10.20
2007,05,03,10,25,10.20
2007,05,03,10,26,10.40
2007,05,03,10,27,10.50
2007,05,03,10,28,10.60
2007,05,03,10,29,10.70
2007,05,03,10,30,10.70
2007,05,03,10,31,10.60
2007,05,03,10,32,10.60
2007,05,03,10,33,10.70
2007,05,03,10,34,10.70
2007,05,03,10,35,10.70
2007,05,03,10,36,10.60
2007,05,03,10,37,10.60
2007,05,03,10,38,10.60
2007,05,03,10,39,10.60
2007,05,03,10,40,10.60
2007,05,03,10,41,10.60
2007,05,03,10,42,10.60
2007,05,03,10,43,10.50
2007,05,03,10,44,10.40
2007,05,03,10,45,10.40
2007,05,03,10,46,10.40
2007,05,03,10,47,10.30
2007,05,03,10,48,10.30
2007,05,03,10,49,10.30
2007,05,03,10,50,10.30
2007,05,03,10,51,10.40
2007,05,03,10,52,10.40
2007,05,03,10,53,10.40
2007,05,03,10,54,10.50
2007,05,03,10,55,10.60
2007,05,03,10,56,10.70
2007,05,03,10,57,10.90
2007,05,03,10,58,10.90
2007,05,03,10,59,10.90
2007,05,03,11,00,10.90
2007,05,03,11,01,10.70
2007,05,03,11,02,10.60
2007,05,03,11,03,10.70
2007,05,03,11,04,10.70
2007,05,03,11,05,10.70
2007,05,03,11,06,10.60
2007,05,03,11,07,10.60
2007,05,03,11,08,10.60
2007,05,03,11,09,10.60
2007,05,03,11,10,10.60
2007,05,03,11,11,10.60
2007,05,03,11,12,10.70
2007,05,03,11,13,10.90
2007,05,03,11,14,11.00
2007,05,03,11,15,11.10
2007,05,03,11,16,11.20
2007,05,03,11,17,11.20
2007,05,03,11,18,11.20
2007,05,03,11,19,11.20
2007,05,03,11,20,11.20
2007,05,03,11,21,11.20
2007,05,03,11,22,11.20
2007,05,03,11,23,11.10
2007,05,03,11,24,10.90
2007,05,03,11,25,10.80
2007,05,03,11,26,10.70
2007,05,03,11,27,10.70
2007,05,03,11,28,10.70
2007,05,03,11,29,10.60
2007,05,03,11,30,10.60
2007,05,03,11,31,10.50
2007,05,03,11,32,10.40
2007,05,03,11,33,10.40
2007,05,03,11,34,10.30
2007,05,03,11,35,10.30
2007,05,03,11,36,10.30
2007,05,03,11,37,10.40
2007,05,03,11,38,10.40
2007,05,03,11,39,10.40
2007,05,03,11,40,10.30
2007,05,03,11,41,10.20
2007,05,03,11,42,10.20
2007,05,03,11,43,10.10
2007,05,03,11,44,10.10
2007,05,03,11,45,10.10
2007,05,03,11,46,10.10
2007,05,03,11,47,10.10
2007,05,03,11,48,9.90
2007,05,03,11,49,9.90
2007,05,03,11,50,9.90
2007,05,03,11,51,9.90
2007,05,03,11,52,10.00
2007,05,03,11,53,10.10
2007,05,03,11,54,10.10
2007,05,03,11,55,10.10
2007,05,03,11,56,10.20
2007,05,03,11,57,10.30
2007,05,03,11,58,10.30
2007,05,03,11,59,10.40
2007,05,03,12,00,10.50
2007,05,03,12,01,10.60
2007,05,03,12,02,10.60
2007,05,03,12,03,10.60
2007,05,03,12,04,10.60
2007,05,03,12,05,10.60
2007,05,03,12,06,10.60
2007,05,03,12,07,10.60
2007,05,03,12,08,10.70
2007,05,03,12,09,10.80
2007,05,03,12,10,10.90
2007,05,03,12,11,11.00
2007,05,03,12,12,11.10
2007,05,03,12,13,11.20
2007,05,03,12,14,11.30
2007,05,03,12,15,11.40
2007,05,03,12,16,11.40
2007,05,03,12,17,11.60
2007,05,03,12,18,11.60
2007,05,03,12,19,11.60
2007,05,03,12,20,11.60
2007,05,03,12,21,11.60
2007,05,03,12,22,11.70
2007,05,03,12,23,11.80
2007,05,03,12,24,11.80
2007,05,03,12,25,11.90
2007,05,03,12,26,11.90
2007,05,03,12,27,11.90
2007,05,03,12,28,11.90
2007,05,03,12,29,12.00
2007,05,03,12,30,12.00
2007,05,03,12,31,12.00
2007,05,03,12,32,12.00
2007,05,03,12,33,12.00
2007,05,03,12,34,11.90
2007,05,03,12,35,11.80
2007,05,03,12,36,11.80
2007,05,03,12,37,11.80
2007,05,03,12,38,11.80
2007,05,03,12,39,11.80
2007,05,03,12,40,11.80
2007,05,03,12,41,11.80
2007,05,03,12,42,11.80
2007,05,03,12,43,11.70
2007,05,03,12,44,11.70
2007,05,03,12,45,11.70
2007,05,03,12,46,11.70
2007,05,03,12,47,11.80
2007,05,03,12,48,11.90
2007,05,03,12,49,11.90
2007,05,03,12,50,11.90
2007,05,03,12,51,11.90
2007,05,03,12,52,11.90
2007,05,03,12,53,11.90
2007,05,03,12,54,11.90
2007,05,03,12,55,11.90
2007,05,03,12,56,12.00
2007,05,03,12,57,12.10
2007,05,03,12,58,12.20
2007,05,03,12,59,12.20
2007,05,03,13,00,12.30
2007,05,03,13,01,12.30
2007,05,03,13,02,12.30
2007,05,03,13,03,12.30
2007,05,03,13,04,12.40
2007,05,03,13,05,12.50
2007,05,03,13,06,12.50
2007,05,03,13,07,12.40
2007,05,03,13,08,12.30
2007,05,03,13,09,12.20
2007,05,03,13,10,12.30
2007,05,03,13,11,12.30
2007,05,03,13,12,12.40
2007,05,03,13,13,12.60
2007,05,03,13,14,12.70
2007,05,03,13,15,12.90
2007,05,03,13,16,13.00
2007,05,03,13,17,13.10
2007,05,03,13,18,13.10
2007,05,03,13,19,13.10
2007,05,03,13,20,13.00
2007,05,03,13,21,13.00
2007,05,03,13,22,12.80
2007,05,03,13,23,12.70
2007,05,03,13,24,12.70
2007,05,03,13,25,12.70
2007,05,03,13,26,12.80
2007,05,03,13,27,12.80
2007,05,03,13,28,12.80
2007,05,03,13,29,12.80
2007,05,03,13,30,12.80
2007,05,03,13,31,12.70
2007,05,03,13,32,12.80
2007,05,03,13,33,12.80
2007,05,03,13,34,12.90
2007,05,03,13,35,12.90
2007,05,03,13,36,12.80
2007,05,03,13,37,12.90
2007,05,03,13,38,12.90
2007,05,03,13,39,12.90
2007,05,03,13,40,12.90
2007,05,03,13,41,12.90
2007,05,03,13,42,12.80
2007,05,03,13,43,12.80
2007,05,03,13,44,12.90
2007,05,03,13,45,12.90
2007,05,03,13,46,12.90
2007,05,03,13,47,12.80
2007,05,03,13,48,12.80
2007,05,03,13,49,12.90
2007,05,03,13,50,12.90
2007,05,03,13,51,13.00
2007,05,03,13,52,13.00
2007,05,03,13,53,12.90
2007,05,03,13,54,12.90
2007,05,03,13,55,12.80
2007,05,03,13,56,12.80
2007,05,03,13,57,12.90
2007,05,03,13,58,13.00
2007,05,03,13,59,13.00
2007,05,03,14,00,13.10
2007,05,03,14,01,13.10
2007,05,03,14,02,13.10
2007,05,03,14,03,13.10
2007,05,03,14,04,13.10
2007,05,03,14,05,13.20
2007,05,03,14,06,13.20
2007,05,03,14,07,13.20
2007,05,03,14,08,13.30
2007,05,03,14,09,13.40
2007,05,03,14,10,13.40
2007,05,03,14,11,13.50
2007,05,03,14,12,13.50
2007,05,03,14,13,13.50
2007,05,03,14,14,13.50
2007,05,03,14,15,13.30
2007,05,03,14,16,13.20
2007,05,03,14,17,13.20
2007,05,03,14,18,13.20
2007,05,03,14,19,13.10
2007,05,03,14,20,13.10
2007,05,03,14,21,13.10
2007,05,03,14,22,13.20
2007,05,03,14,23,13.20
2007,05,03,14,24,13.20
2007,05,03,14,25,13.20
2007,05,03,14,26,13.10
2007,05,03,14,27,13.10
2007,05,03,14,28,13.10
2007,05,03,14,29,13.00
2007,05,03,14,30,13.10
2007,05,03,14,31,13.10
2007,05,03,14,32,13.20
2007,05,03,14,33,13.30
2007,05,03,14,34,13.30
2007,05,03,14,35,13.30
2007,05,03,14,36,13.30
2007,05,03,14,37,13.30
2007,05,03,14,38,13.30
2007,05,03,14,39,13.30
2007,05,03,14,40,13.30
2007,05,03,14,41,13.40
2007,05,03,14,42,13.50
2007,05,03,14,43,13.60
2007,05,03,14,44,13.60
2007,05,03,14,45,13.70
2007,05,03,14,46,13.70
2007,05,03,14,47,13.70
2007,05,03,14,48,13.70
2007,05,03,14,49,13.70
2007,05,03,14,50,13.70
2007,05,03,14,51,13.60
2007,05,03,14,52,13.60
2007,05,03,14,53,13.40
2007,05,03,14,54,13.30
2007,05,03,14,55,13.20
2007,05,03,14,56,13.10
2007,05,03,14,57,13.10
2007,05,03,14,58,13.10
2007,05,03,14,59,13.00
2007,05,03,15,00,13.00
2007,05,03,15,01,13.00
2007,05,03,15,02,13.00
2007,05,03,15,03,13.10
2007,05,03,15,04,13.20
2007,05,03,15,05,13.30
2007,05,03,15,06,13.30
2007,05,03,15,07,13.50
2007,05,03,15,08,13.60
2007,05,03,15,09,13.70
2007,05,03,15,10,13.80
2007,05,03,15,11,13.80
2007,05,03,15,12,13.90
2007,05,03,15,13,13.90
2007,05,03,15,14,13.80
2007,05,03,15,15,13.80
2007,05,03,15,16,13.70
2007,05,03,15,17,13.60
2007,05,03,15,18,13.60
2007,05,03,15,19,13.70
2007,05,03,15,20,13.70
2007,05,03,15,21,13.70
2007,05,03,15,22,13.70
2007,05,03,15,23,13.60
2007,05,03,15,24,13.60
2007,05,03,15,25,13.50
2007,05,03,15,26,13.40
2007,05,03,15,27,13.40
2007,05,03,15,28,13.50
2007,05,03,15,29,13.60
2007,05,03,15,30,13.60
2007,05,03,15,31,13.70
2007,05,03,15,32,13.70
2007,05,03,15,33,13.70
2007,05,03,15,34,13.70
2007,05,03,15,35,13.70
2007,05,03,15,36,13.70
2007,05,03,15,37,13.70
2007,05,03,15,38,13.70
2007,05,03,15,39,13.70
2007,05,03,15,40,13.70
2007,05,03,15,41,13.60
2007,05,03,15,42,13.50
2007,05,03,15,43,13.40
2007,05,03,15,44,13.40
2007,05,03,15,45,13.40
2007,05,03,15,46,13.40
2007,05,03,15,47,13.50
2007,05,03,15,48,13.50
2007,05,03,15,49,13.30
2007,05,03,15,50,13.20
2007,05,03,15,51,13.10
2007,05,03,15,52,13.00
2007,05,03,15,53,12.80
2007,05,03,15,54,12.70
2007,05,03,15,55,12.60
2007,05,03,15,56,12.60
2007,05,03,15,57,12.60
2007,05,03,15,58,12.60
2007,05,03,15,59,12.60
2007,05,03,16,00,12.70
2007,05,03,16,01,12.70
2007,05,03,16,02,12.80
2007,05,03,16,03,12.90
2007,05,03,16,04,13.00
2007,05,03,16,05,13.10
2007,05,03,16,06,13.20
2007,05,03,16,07,13.30
2007,05,03,16,08,13.40
2007,05,03,16,09,13.40
2007,05,03,16,10,13.40
2007,05,03,16,11,13.40
2007,05,03,16,12,13.50
2007,05,03,16,13,13.50
2007,05,03,16,14,13.50
2007,05,03,16,15,13.60
2007,05,03,16,16,13.60
2007,05,03,16,17,13.60
2007,05,03,16,18,13.60
2007,05,03,16,19,13.70
2007,05,03,16,20,13.60
2007,05,03,16,21,13.50
2007,05,03,16,22,13.50
2007,05,03,16,23,13.40
2007,05,03,16,24,13.40
2007,05,03,16,25,13.50
2007,05,03,16,26,13.50
2007,05,03,16,27,13.50
2007,05,03,16,28,13.60
2007,05,03,16,29,13.60
2007,05,03,16,30,13.60
2007,05,03,16,31,13.70
2007,05,03,16,32,13.70
2007,05,03,16,33,13.70
2007,05,03,16,34,13.80
2007,05,03,16,35,13.80
2007,05,03,16,36,13.70
2007,05,03,16,37,13.70
2007,05,03,16,38,13.60
2007,05,03,16,39,13.50
2007,05,03,16,40,13.50
2007,05,03,16,41,13.30
2007,05,03,16,42,13.20
2007,05,03,16,43,13.10
2007,05,03,16,44,13.00
2007,05,03,16,45,13.00
2007,05,03,16,46,12.90
2007,05,03,16,47,12.80
2007,05,03,16,48,12.70
2007,05,03,16,49,12.60
2007,05,03,16,50,12.60
2007,05,03,16,51,12.60
2007,05,03,16,52,12.50
2007,05,03,16,53,12.50
2007,05,03,16,54,12.50
2007,05,03,16,55,12.50
2007,05,03,16,56,12.50
2007,05,03,16,57,12.50
2007,05,03,16,58,12.50
2007,05,03,16,59,12.60
2007,05,03,17,00,12.70
2007,05,03,17,01,12.70
2007,05,03,17,02,12.70
2007,05,03,17,03,12.70
2007,05,03,17,04,12.60
2007,05,03,17,05,12.50
2007,05,03,17,06,12.50
2007,05,03,17,07,12.40
2007,05,03,17,08,12.30
2007,05,03,17,09,12.30
2007,05,03,17,10,12.20
2007,05,03,17,11,12.10
2007,05,03,17,12,12.10
2007,05,03,17,13,12.10
2007,05,03,17,14,12.20
2007,05,03,17,15,12.20
2007,05,03,17,16,12.30
2007,05,03,17,17,12.20
2007,05,03,17,18,12.20
2007,05,03,17,19,12.10
2007,05,03,17,20,12.10
2007,05,03,17,21,12.10
2007,05,03,17,22,12.10
2007,05,03,17,23,12.10
2007,05,03,17,24,12.20
2007,05,03,17,25,12.20
2007,05,03,17,26,12.30
2007,05,03,17,27,12.30
2007,05,03,17,28,12.40
2007,05,03,17,29,12.40
2007,05,03,17,30,12.50
2007,05,03,17,31,12.50
2007,05,03,17,32,12.50
2007,05,03,17,33,12.40
2007,05,03,17,34,12.40
2007,05,03,17,35,12.40
2007,05,03,17,36,12.30
2007,05,03,17,37,12.40
2007,05,03,17,38,12.40
2007,05,03,17,39,12.40
2007,05,03,17,40,12.50
2007,05,03,17,41,12.50
2007,05,03,17,42,12.60
2007,05,03,17,43,12.70
2007,05,03,17,44,12.80
2007,05,03,17,45,12.80
2007,05,03,17,46,12.70